Вернуться в каталог

CZ-3B DEB

LostHEO
NORAD 42472·DEBRIS·🇨🇳 China

Запущен Dec 19, 2011 с Xichang Satellite Launch Center

Loading…

Ближайшие Пролёты (ближайшие 24 часа)

TLE

УстаревшееSource: Space-Track

Эпоха: Feb 27, 2026, 20:08 UTC

1 42472U 11077AM  26058.83914333 -.00000250  00000-0  00000-0 0  9998
2 42472  25.8633 332.2967 7178161 216.3672  61.7467  1.79310469 73076

Отслеживайте CZ-3B DEB в реальном времени с AllMySat

Download on the App Store